sat.trackr.live / text

‹ back to catalog

UNKNOWN

NORAD 81438

UNKNOWN UNKNOWN UNKNOWN

§ Identity

Operator
Country
Launch date
Launch site
Launch vehicle
Mass (kg)
RCS (m²)

External: N2YO · Heavens-Above

§ Orbital elements

Epoch: 2026-05-23T22:49:08.719104Z

Period
106.23 min
Inclination
100.3360°
Eccentricity
0.0058341
Mean motion
13.55586888 rev/d
Perigee alt
1,008.4 km
Apogee alt
1,095.1 km
Semi-major
7,429.9 km
B*
3.1071e-3
RAAN
27.9167°
Arg perigee
36.3883°
Mean anomaly
324.1197°
Rev number
61,391

§ Raw data

UNKNOWN1 81438U          26143.95079536  .00002135  00000+0  31071-2 0  99982 81438 100.3360  27.9167 0058341  36.3883 324.1197 13.55586888613917

JSON: /api/v1/satellites/81438 · /tle

For live sub-satellite position, see the globe view (requires WebGL).

§ Visibility from observer

Set your observer location to see the next 7 days of passes ≥ 10°. The values pass through the URL so the page stays shareable.

No JS? Fill the form by hand. The geolocation button needs JavaScript.